East Milton, MA

9:48 PM EDT on July 22, 2017 (GMT -0400)
East Milton

Weather History for KMQE - March, 2014

Change the Weather History Date:

Saturday, March 15, 2014

  Actual Average (KOWD) Record (KOWD)
Temperature  
Mean Temperature 44 °F -  
Max Temperature 54 °F 41 °F 61 °F (2009)
Min Temperature 35 °F 24 °F 19 °F (2017)
Degree Days  
Heating Degree Days 22    
Moisture  
Dew Point 30 °F    
Average Humidity 64    
Maximum Humidity 86    
Minimum Humidity 38    
Precipitation  
Precipitation 0.02 in - - ()
Sea Level Pressure  
Sea Level Pressure 29.79 in    
Wind  
Wind Speed 20 mph (SW)    
Max Wind Speed 25 mph    
Max Gust Speed 37 mph    
Averages and records for this station are not official NWS values.
T = Trace of Precipitation, MM = Missing Value Source: NWS Daily Summary

Daily Weather History Graph

Daily Weather History Graph

Search for Another Location

Airport or City:

Trip Planner

Search our weather history database for the weather conditions in past years. The results will help you decide how hot, cold, wet, or windy it might be!

Date:

Astronomy

Mar. 15, 2014 Rise Set
Actual Time 6:56 AM EDT 6:50 PM EDT
Civil Twilight 6:28 AM EDT 7:18 PM EDT
Nautical Twilight 5:55 AM EDT 7:51 PM EDT
Astronomical Twilight 5:23 AM EDT 8:24 PM EDT
Moon 6:07 PM EDT (3/15) 6:07 AM EDT (3/15)
Length of Visible Light 12h 50m
Length of Day
11h 54m
Waxing Gibbous, 99% of the Moon is Illuminated
Mar 15
Waxing Gibbous
Mar 16
Full
Mar 23
Last Quarter
Mar 30
New
Apr 7
First Quarter

Hourly Weather History & Observations

Time (EDT) Temp. Windchill Dew Point Humidity Pressure Visibility Wind Dir Wind Speed Gust Speed Precip Events Conditions
12:54 AM 35.1 °F 22.7 °F 28.0 °F 76% 29.92 in - South 25.3 mph 31.1 mph N/A   Unknown
1:54 AM 36.0 °F 24.7 °F 28.9 °F 76% 29.89 in - South 21.9 mph 27.6 mph N/A   Unknown
2:54 AM 36.0 °F 25.3 °F 30.0 °F 79% 29.85 in - South 19.6 mph 29.9 mph N/A   Unknown
3:54 AM 37.0 °F 26.2 °F 30.0 °F 76% 29.81 in - South 21.9 mph 29.9 mph N/A   Unknown
4:54 AM 37.9 °F 27.3 °F 30.9 °F 76% 29.79 in - South 21.9 mph 31.1 mph N/A   Unknown
5:54 AM 37.9 °F 27.9 °F 30.9 °F 76% 29.79 in - SSW 19.6 mph 26.5 mph N/A   Unknown
6:54 AM 39.0 °F 29.9 °F 30.9 °F 73% 29.78 in - SSW 17.3 mph - N/A   Unknown
7:54 AM 37.9 °F 27.9 °F 34.0 °F 86% 29.76 in - South 19.6 mph 25.3 mph 0.02 in   Unknown
8:54 AM 39.0 °F 29.6 °F 35.1 °F 86% 29.75 in - SSW 18.4 mph 27.6 mph N/A   Unknown
9:54 AM 43.0 °F 35.4 °F 36.0 °F 76% 29.74 in - SSW 16.1 mph 26.5 mph N/A   Unknown
10:54 AM 46.0 °F 39.3 °F 33.1 °F 61% 29.73 in - SW 16.1 mph 24.2 mph N/A   Unknown
11:54 AM 48.0 °F - 32.0 °F 54% 29.73 in - SW 17.3 mph 26.5 mph N/A   Unknown
12:54 PM 51.1 °F - 33.1 °F 50% 29.71 in - SW 10.4 mph 24.2 mph N/A   Unknown
1:54 PM 52.0 °F - 32.0 °F 47% 29.69 in - West 17.3 mph 28.8 mph N/A   Unknown
2:54 PM 52.0 °F - 27.0 °F 38% 29.69 in - West 19.6 mph 32.2 mph N/A   Unknown
3:54 PM 50.0 °F - 28.0 °F 43% 29.70 in - West 21.9 mph 36.8 mph N/A   Unknown
4:54 PM 46.9 °F - 33.1 °F 59% 29.75 in - West 19.6 mph 28.8 mph N/A   Unknown
5:54 PM 45.0 °F 37.6 °F 28.9 °F 53% 29.78 in - West 17.3 mph 29.9 mph N/A   Unknown
6:54 PM 42.1 °F 34.5 °F 30.0 °F 62% 29.82 in - West 15.0 mph - N/A   Unknown
7:54 PM 41.0 °F 32.8 °F 26.1 °F 55% 29.85 in - WNW 16.1 mph 21.9 mph N/A   Unknown
8:54 PM 39.9 °F 31.8 °F 26.1 °F 58% 29.87 in - WNW 15.0 mph 20.7 mph N/A   Unknown
9:54 PM 39.0 °F 31.0 °F 26.1 °F 60% 29.88 in - West 13.8 mph - N/A   Unknown
10:54 PM 37.9 °F 30.9 °F 26.1 °F 62% 29.89 in - WSW 10.4 mph 19.6 mph N/A   Unknown
11:54 PM 37.0 °F 26.2 °F 25.0 °F 62% 29.89 in - West 21.9 mph 29.9 mph N/A   Unknown